Meteo Giornale » Osservazioni meteo Repubblica Ceca » Pardubice

ore: 22:30 - Osservazioni Meteo Pardubice
Lat. 50° 1' N Lon. 15° 44' E Alt. 226 metri s.l.m.

sereno Europe/Prague

12 °C

Sereno

Temp. 24 Ore

12 °C

22 °C

Nord

3.7 Km/h

Dew point 11 °C

Umidità 93 %

Visibilità  10 Km

Il sole sorge alle ore 06:46

Il sole tramonta alle ore 18:50

Data e Ora Cielo e Fenomeni T °C DP °C Um. % Pres. hPa Vis. km Vento km/h
Oggi h: 22:30 sereno Sereno 12 11 93 1019 10 N 3.7
Oggi h: 22:00 sereno Sereno 13 11 87 1019 10 N 3.7
Oggi h: 21:30 sereno Sereno 14 12 87 1019 10 N 1.8
Oggi h: 21:00 sereno Sereno 14 12 87 1019 10 N 1.8
Oggi h: 20:30 sereno Sereno 14 11 82 1019 10 N 0
Oggi h: 20:00 sereno Sereno 16 12 77 1018 10 N 1.8
Oggi h: 19:30 sereno Sereno 17 12 72 1018 10 N 1.8
Oggi h: 19:00 sereno Sereno 19 12 63 1018 10 N 3.7
Oggi h: 18:30 sereno Sereno 20 12 59 1018 10 N 5.5
Oggi h: 18:00 sereno Sereno 21 12 56 1018 10 N 3.7
Oggi h: 17:30 sereno Sereno 21 11 52 1018 10 N 5.5
Oggi h: 17:00 sereno Sereno 21 11 52 1018 10 O 7.4
Oggi h: 16:30 poco_nuvoloso Poco Nuvoloso 22 11 49 1018 10 O 11.1
Oggi h: 16:00 poco_nuvoloso Poco Nuvoloso 22 11 49 1018 10 O 16.7
Oggi h: 15:30 poco_nuvoloso Poco Nuvoloso 21 11 52 1018 10 O/SO 14.8
Oggi h: 15:00 nuvoloso Nuvoloso 22 11 49 1018 10 O/SO 13
Oggi h: 14:30 nuvoloso Nuvoloso 21 11 52 1018 10 O 11.1
Oggi h: 14:00 molto_nuvoloso Molto Nuvoloso 20 11 56 1018 10 O/NO 9.3
Oggi h: 13:30 molto_nuvoloso Molto Nuvoloso 20 11 56 1018 10 O/NO 13
Oggi h: 13:00 molto_nuvoloso Molto Nuvoloso 19 11 59 1018 10 O/NO 13
Oggi h: 12:30 molto_nuvoloso Molto Nuvoloso 19 11 59 1019 10 O 18.5
Oggi h: 12:00 molto_nuvoloso Molto Nuvoloso 19 11 59 1018 10 O/SO 16.7
Oggi h: 11:30 molto_nuvoloso Molto Nuvoloso 19 11 59 1018 10 O 16.7
Oggi h: 10:30 coperto Coperto 18 12 67 1018 10 O/SO 14.8
Oggi h: 10:00 coperto Coperto 18 12 67 1018 10 O 13
Oggi h: 09:30 coperto Coperto 17 12 72 1018 10 O/SO 14.8
Oggi h: 09:00 coperto Coperto 17 12 72 1018 10 O/SO 14.8
Oggi h: 08:00 coperto Coperto 16 12 77 1017 10 O/SO 13
Oggi h: 07:30 coperto Coperto 16 12 77 1017 10 O/SO 11.1
Oggi h: 07:00 sereno Sereno 15 12 82 1017 10 O/SO 9.3
Oggi h: 06:00 coperto Coperto 16 12 77 1017 10 O/SO 11.1
Oggi h: 05:30 sereno Sereno 16 12 77 1017 10 N 5.5
Oggi h: 04:30 sereno Sereno 15 13 87 1017 10 N 1.8
Oggi h: 04:00 sereno Sereno 15 12 82 1017 10 N 1.8
Oggi h: 03:30 sereno Sereno 15 12 82 1017 10 N 3.7
Oggi h: 03:00 sereno Sereno 15 12 82 1017 10 N 3.7
Oggi h: 02:00 sereno Sereno 15 12 82 1017 10 N 5.5
Oggi h: 01:30 coperto Coperto 15 12 82 1017 10 N 5.5
Oggi h: 01:00 coperto Coperto 15 12 82 1017 10 N 1.8
Oggi h: 00:30 coperto Coperto 15 11 76 1017 10 N 3.7
Oggi h: 00:00 coperto Coperto 15 12 82 1017 10 N 3.7
Ieri h: 23:30 molto_nuvoloso Molto Nuvoloso 15 11 76 1017 10 N 5.5
Ieri h: 23:00 molto_nuvoloso Molto Nuvoloso 15 11 76 1017 10 S/SO 7.4